GW2624 Weather Reports


time (UTC)temp
C
wind
direction
speed
KPH
gust
KPH
rain 1hr
cm
rain 24hr
cm
rain mn
cm
humidity
%
barometer
mb
20260903161904 24 146 3.2 9.7 0.00 0.00 0.00 45 1009.0
20260903160905 23 282 1.6 9.7 0.00 0.00 0.00 46 1009.0
20260903160404 23 220 3.2 4.8 0.00 0.00 0.00 46 1008.9
20260903155905 23 311 1.6 4.8 0.00 0.00 0.00 46 1008.9
20260903152905 21 228 1.6 4.8 0.00 0.00 0.00 53 1009.2
20260903151905 20 272 1.6 4.8 0.00 0.00 0.00 54 1009.3
20260903150404 18 247 1.6 4.8 0.00 0.00 0.00 54 1009.3
20260903145905 18 227 0.0 3.2 0.00 0.00 0.00 56 1009.4
20260903143904 17 207 0.0 3.2 0.00 0.00 0.00 61 1009.4
20260903142904 16 141 0.0 0.0 0.00 0.00 0.00 66 1009.4
20260903141404 14 141 0.0 0.0 0.00 0.00 0.00 73 1009.3
20260903140904 13 141 0.0 0.0 0.00 0.00 0.00 76 1009.3
20260903135905 12 141 0.0 0.0 0.00 0.00 0.00 79 1009.4
20260903135405 12 141 0.0 0.0 0.00 0.00 0.00 80 1009.4
20260903134904 12 141 0.0 0.0 0.00 0.00 0.00 81 1009.3
20260903133905 11 18 0.0 1.6 0.00 0.00 0.00 81 1009.4
20260903131905 11 141 0.0 0.0 0.00 0.00 0.00 80 1009.3
20260903131405 11 141 0.0 0.0 0.00 0.00 0.00 80 1009.2
20260903130404 11 141 0.0 0.0 0.00 0.00 0.00 79 1009.0
20260903125404 11 141 0.0 0.0 0.00 0.00 0.00 79 1008.9
20260903124904 11 141 0.0 1.6 0.00 0.00 0.00 79 1008.9
20260903124404 11 141 0.0 1.6 0.00 0.00 0.00 78 1008.8
20260903123404 11 141 0.0 0.0 0.00 0.00 0.00 78 1008.7
20260903121905 11 141 0.0 0.0 0.00 0.00 0.00 77 1008.6
20260903121405 11 141 0.0 0.0 0.00 0.00 0.00 77 1008.6
20260903120904 11 141 0.0 0.0 0.00 0.00 0.00 77 1008.5
20260903112905 11 141 0.0 3.2 0.00 0.00 0.00 73 1008.6
20260903111405 12 141 0.0 1.6 0.00 0.00 0.00 72 1008.4
20260903110905 12 0 0.0 1.6 0.00 0.00 0.00 72 1008.4
20260903110404 12 0 0.0 1.6 0.00 0.00 0.00 71 1008.4
20260903105905 12 0 0.0 0.0 0.00 0.00 0.00 70 1008.3
20260903104404 12 0 0.0 3.2 0.00 0.00 0.00 69 1008.3
20260903103404 12 0 0.0 3.2 0.00 0.00 0.00 67 1008.3
20260903102904 12 0 0.0 1.6 0.00 0.00 0.00 67 1008.2
20260903101905 13 0 1.6 3.2 0.00 0.00 0.00 64 1008.1
20260903100904 13 0 0.0 3.2 0.00 0.00 0.00 62 1008.0
20260903100405 13 0 1.6 4.8 0.00 0.00 0.00 61 1007.9
20260903095404 13 0 1.6 4.8 0.00 0.00 0.00 62 1007.8
20260903094904 13 0 1.6 4.8 0.00 0.00 0.00 62 1007.7
20260903094405 13 0 3.2 4.8 0.00 0.00 0.00 61 1007.8
20260903093905 13 0 1.6 4.8 0.00 0.00 0.00 62 1007.8
20260903093404 13 0 0.0 4.8 0.00 0.00 0.00 62 1007.8
20260903091405 13 0 0.0 1.6 0.00 0.00 0.00 62 1007.8
20260903090905 13 0 0.0 4.8 0.00 0.00 0.00 63 1007.9
20260903085904 13 0 1.6 4.8 0.00 0.00 0.00 63 1007.8
20260903084405 14 0 0.0 1.6 0.00 0.00 0.00 61 1007.8
20260903083905 14 0 0.0 1.6 0.00 0.00 0.00 61 1007.9
20260903082404 15 0 1.6 3.2 0.00 0.00 0.00 54 1007.8
20260903081905 15 0 1.6 1.6 0.00 0.00 0.00 54 1007.8
20260903080904 15 0 0.0 1.6 0.00 0.00 0.00 54 1007.9
20260903080405 15 0 0.0 3.2 0.00 0.00 0.00 55 1007.8
20260903074904 15 0 1.6 4.8 0.00 0.00 0.00 57 1007.7
20260903073905 15 0 0.0 4.8 0.00 0.00 0.00 56 1007.7
20260903072904 15 0 0.0 4.8 0.00 0.00 0.00 57 1007.8
20260903071905 15 0 0.0 3.2 0.00 0.00 0.00 54 1007.8
20260903071404 16 0 0.0 4.8 0.00 0.00 0.00 54 1007.8
20260903070405 16 0 0.0 4.8 0.00 0.00 0.00 53 1007.9
20260903065405 16 0 1.6 4.8 0.00 0.00 0.00 50 1007.8
20260903064404 16 0 3.2 4.8 0.00 0.00 0.00 54 1007.7
20260903063904 16 0 1.6 4.8 0.00 0.00 0.00 54 1007.7
20260903063404 16 0 0.0 3.2 0.00 0.00 0.00 52 1007.7
20260903062404 16 138 0.0 4.8 0.00 0.00 0.00 52 1007.8
20260903061405 16 138 3.2 8.0 0.00 0.00 0.00 52 1007.6
20260903060904 16 140 3.2 4.8 0.00 0.00 0.00 53 1007.6
20260903060405 16 155 3.2 4.8 0.00 0.00 0.00 53 1007.5
20260903055905 16 155 0.0 4.8 0.00 0.00 0.00 53 1007.5
20260903055404 16 155 0.0 4.8 0.00 0.00 0.00 54 1007.4
20260903054904 16 157 3.2 4.8 0.00 0.00 0.00 53 1007.4
20260903054404 16 130 3.2 4.8 0.00 0.00 0.00 55 1007.5
20260903053906 16 132 0.0 4.8 0.00 0.00 0.00 57 1007.4
20260903052904 17 138 0.0 1.6 0.00 0.00 0.00 55 1007.3
20260903051404 17 138 0.0 0.0 0.00 0.00 0.00 52 1007.4
20260903050905 17 138 0.0 0.0 0.00 0.00 0.00 53 1007.4
20260903045904 17 138 0.0 0.0 0.00 0.00 0.00 54 1007.4
20260903045405 17 138 0.0 0.0 0.00 0.00 0.00 53 1007.5
20260903044404 18 138 0.0 3.2 0.00 0.00 0.00 51 1007.4
20260903043405 18 138 0.0 1.6 0.00 0.00 0.00 50 1007.5
20260903042904 18 138 0.0 4.8 0.00 0.00 0.00 50 1007.5
20260903042405 18 138 1.6 4.8 0.00 0.00 0.00 49 1007.5
20260903040404 18 140 1.6 4.8 0.00 0.00 0.00 49 1007.6
20260903034905 18 148 0.0 4.8 0.00 0.00 0.00 49 1007.3
20260903033905 18 144 3.2 4.8 0.00 0.00 0.00 49 1007.2
20260903031904 19 145 1.6 4.8 0.00 0.00 0.00 49 1007.0
20260903024404 19 175 0.0 1.6 0.00 0.00 0.00 52 1006.5
20260903023405 20 175 0.0 3.2 0.00 0.00 0.00 49 1006.4
20260903022904 20 175 0.0 3.2 0.00 0.00 0.00 48 1006.5
20260903020405 22 175 0.0 0.0 0.00 0.00 0.00 38 1006.3
20260903015905 23 175 0.0 0.0 0.00 0.00 0.00 37 1006.2
20260903014405 24 175 0.0 0.0 0.00 0.00 0.00 33 1006.2
20260903013404 25 175 0.0 1.6 0.00 0.00 0.00 31 1006.2
20260903011404 26 192 1.6 9.7 0.00 0.00 0.00 27 1006.2
20260903010405 26 199 4.8 14.5 0.00 0.00 0.00 27 1006.1
20260903005904 26 214 4.8 14.5 0.00 0.00 0.00 27 1006.1
20260903002904 27 216 3.2 9.7 0.00 0.00 0.00 28 1006.1
20260903002405 26 218 3.2 9.7 0.00 0.00 0.00 28 1006.1
20260903001405 27 204 4.8 12.9 0.00 0.00 0.00 27 1006.2
20260903000905 27 200 4.8 12.9 0.00 0.00 0.00 26 1006.2
20260902234904 27 235 3.2 8.0 0.00 0.00 0.00 27 1006.2
20260902233404 27 169 1.6 9.7 0.00 0.00 0.00 28 1006.3
20260902232904 27 156 4.8 9.7 0.00 0.00 0.00 28 1006.3
20260902232404 27 202 3.2 9.7 0.00 0.00 0.00 28 1006.4
20260902230905 28 210 4.8 14.5 0.00 0.00 0.00 27 1006.5
20260902225904 27 177 3.2 14.5 0.00 0.00 0.00 27 1006.4
20260902224405 28 213 8.0 14.5 0.00 0.00 0.00 26 1006.5
20260902214404 28 226 8.0 24.1 0.00 0.00 0.00 26 1006.9
20260902213404 29 149 9.7 20.9 0.00 0.00 0.00 25 1007.0
20260902212904 28 176 4.8 19.3 0.00 0.00 0.00 26 1007.2
20260902212404 28 201 6.4 22.5 0.00 0.00 0.00 26 1007.3
20260902211904 28 180 8.0 22.5 0.00 0.00 0.00 26 1007.4
20260902203904 26 273 1.6 11.3 0.00 0.00 0.00 37 1008.1
20260902203405 26 221 4.8 11.3 0.00 0.00 0.00 33 1008.2
20260902202904 26 251 1.6 8.0 0.00 0.00 0.00 36 1008.3
20260902202404 26 285 3.2 8.0 0.00 0.00 0.00 34 1008.3
20260902201904 26 7 1.6 3.2 0.00 0.00 0.00 38 1008.4
20260902194905 27 207 4.8 14.5 0.00 0.00 0.00 33 1008.7
20260902193904 28 177 4.8 16.1 0.00 0.00 0.00 33 1008.8
20260902192404 27 184 3.2 14.5 0.00 0.00 0.00 32 1009.2
20260902190905 27 164 1.6 8.0 0.00 0.00 0.00 32 1009.1
20260902185904 27 253 3.2 4.8 0.00 0.00 0.00 34 1009.4
20260902184905 27 190 1.6 9.7 0.00 0.00 0.00 33 1009.6
20260902183904 27 289 3.2 11.3 0.00 0.00 0.00 34 1009.9
20260902183404 27 174 3.2 11.3 0.00 0.00 0.00 31 1010.0
20260902182404 27 234 1.6 4.8 0.00 0.00 0.00 33 1010.2
20260902181404 27 185 1.6 4.8 0.00 0.00 0.00 33 1010.5
20260902175904 26 167 3.2 4.8 0.00 0.00 0.00 31 1010.7
20260902171405 23 173 0.0 4.8 0.00 0.00 0.00 49 1010.7
20260902170904 23 227 1.6 4.8 0.00 0.00 0.00 54 1010.7
20260902164904 23 295 1.6 4.8 0.00 0.00 0.00 54 1010.8
20260902163904 23 197 3.2 9.7 0.00 0.00 0.00 54 1010.7
20260902162905 23 228 4.8 9.7 0.00 0.00 0.00 56 1010.7